Back to catalog

CZ-6A DEB

AlivePO
NORAD 61431·DEBRIS·🇨🇳 China

Launched Aug 6, 2024 from Taiyuan Satellite Launch Center

Loading…

Next Passes (next 24 hours)

TLE

FreshSource: Space-Track

Epoch: Sep 14, 2026, 06:36 UTC

1 61431U 24140YY  26257.27531684  .00001151  00000-0  15498-3 0  9992
2 61431  89.1224 269.9494 0157165 249.7630 108.6631 14.70254883110539

Track CZ-6A DEB in real time with AllMySat

Download on the App Store